Time,TemperatureF,DewpointF,PressureIn,WindDirection,WindDirectionDegrees,WindSpeedMPH,WindSpeedGustMPH,Humidity,HourlyPrecipIn,Conditions,Clouds,dailyrainin,SoftwareType,DateUTC
2013-02-25 00:03:00,21.9,18.9,30.14,WNW,293,0.0,0.0,88,0.00,,,0.00,Wunderground v.1.15,2013-02-25 06:03:00,
2013-02-25 00:08:00,22.0,19.0,30.14,WNW,294,0.0,0.0,88,0.00,,,0.00,Wunderground v.1.15,2013-02-25 06:08:00,
2013-02-25 00:13:00,22.0,19.0,30.14,WNW,292,0.0,1.0,88,0.00,,,0.00,Wunderground v.1.15,2013-02-25 06:13:00,
2013-02-25 00:19:00,22.0,19.0,30.14,WNW,292,0.0,1.0,88,0.00,,,0.00,Wunderground v.1.15,2013-02-25 06:19:00,
2013-02-25 00:24:00,21.9,18.9,30.14,WNW,293,0.0,0.0,88,0.00,,,0.00,Wunderground v.1.15,2013-02-25 06:24:00,
2013-02-25 00:31:00,21.9,19.2,30.14,WNW,294,0.0,0.0,89,0.00,,,0.00,Wunderground v.1.15,2013-02-25 06:31:00,
2013-02-25 00:37:00,21.9,19.2,30.14,WNW,294,0.0,0.0,89,0.00,,,0.00,Wunderground v.1.15,2013-02-25 06:37:00,
2013-02-25 00:43:00,21.9,19.2,30.14,WNW,292,0.0,0.0,89,0.00,,,0.00,Wunderground v.1.15,2013-02-25 06:43:00,
2013-02-25 00:48:00,21.9,19.2,30.14,WNW,293,0.0,0.0,89,0.00,,,0.00,Wunderground v.1.15,2013-02-25 06:48:00,
2013-02-25 00:53:00,22.0,19.3,30.14,WNW,293,0.0,0.0,89,0.00,,,0.00,Wunderground v.1.15,2013-02-25 06:53:00,
2013-02-25 00:58:00,22.0,19.3,30.14,WNW,294,0.0,0.0,89,0.00,,,0.00,Wunderground v.1.15,2013-02-25 06:58:00,
2013-02-25 01:03:00,22.0,19.5,30.13,WNW,292,0.0,0.0,90,0.00,,,0.00,Wunderground v.1.15,2013-02-25 07:03:00,
2013-02-25 01:08:00,22.0,19.5,30.13,WNW,294,0.0,0.0,90,0.00,,,0.00,Wunderground v.1.15,2013-02-25 07:08:00,
2013-02-25 01:14:00,22.0,19.5,30.13,WNW,293,0.0,0.0,90,0.00,,,0.00,Wunderground v.1.15,2013-02-25 07:14:00,
2013-02-25 01:19:00,22.0,19.5,30.13,WNW,292,0.0,0.0,90,0.00,,,0.00,Wunderground v.1.15,2013-02-25 07:19:00,
2013-02-25 01:24:00,22.0,19.5,30.13,WNW,293,0.0,0.0,90,0.00,,,0.00,Wunderground v.1.15,2013-02-25 07:24:00,
2013-02-25 01:29:00,22.1,19.6,30.13,WNW,293,0.0,0.0,90,0.00,,,0.00,Wunderground v.1.15,2013-02-25 07:29:00,
2013-02-25 01:36:00,22.1,19.6,30.13,WNW,292,0.0,0.0,90,0.00,,,0.00,Wunderground v.1.15,2013-02-25 07:36:00,
2013-02-25 01:41:00,22.1,19.6,30.13,WNW,293,0.0,0.0,90,0.00,,,0.00,Wunderground v.1.15,2013-02-25 07:41:00,
2013-02-25 01:46:00,22.1,19.6,30.13,WNW,293,0.0,0.0,90,0.00,,,0.00,Wunderground v.1.15,2013-02-25 07:46:00,
2013-02-25 01:52:00,22.1,19.6,30.13,WNW,292,0.0,0.0,90,0.00,,,0.00,Wunderground v.1.15,2013-02-25 07:52:00,
2013-02-25 01:58:00,22.1,19.6,30.13,WNW,292,0.0,0.0,90,0.00,,,0.00,Wunderground v.1.15,2013-02-25 07:58:00,
2013-02-25 02:03:00,22.2,19.7,30.13,WNW,293,0.0,0.0,90,0.00,,,0.00,Wunderground v.1.15,2013-02-25 08:03:00,
2013-02-25 02:08:00,22.2,19.7,30.13,WNW,292,0.0,0.0,90,0.00,,,0.00,Wunderground v.1.15,2013-02-25 08:08:00,
2013-02-25 02:13:00,22.2,20.0,30.13,WNW,293,0.0,0.0,91,0.00,,,0.00,Wunderground v.1.15,2013-02-25 08:13:00,
2013-02-25 02:18:00,22.2,20.0,30.13,WNW,292,0.0,0.0,91,0.00,,,0.00,Wunderground v.1.15,2013-02-25 08:18:00,
2013-02-25 02:23:00,22.2,20.0,30.12,WNW,292,0.0,0.0,91,0.00,,,0.00,Wunderground v.1.15,2013-02-25 08:23:00,
2013-02-25 02:28:00,22.2,20.0,30.12,WNW,293,0.0,0.0,91,0.00,,,0.00,Wunderground v.1.15,2013-02-25 08:28:00,
2013-02-25 02:33:00,22.3,20.1,30.12,WNW,293,0.0,0.0,91,0.00,,,0.00,Wunderground v.1.15,2013-02-25 08:33:00,
2013-02-25 02:38:00,22.4,20.2,30.12,WNW,294,2.0,2.0,91,0.00,,,0.00,Wunderground v.1.15,2013-02-25 08:38:00,
2013-02-25 02:43:00,22.4,20.2,30.12,WNW,292,4.0,5.0,91,0.00,,,0.00,Wunderground v.1.15,2013-02-25 08:43:00,
2013-02-25 02:48:00,22.4,20.2,30.12,WNW,293,6.0,7.0,91,0.00,,,0.00,Wunderground v.1.15,2013-02-25 08:48:00,
2013-02-25 02:53:00,22.4,20.2,30.12,WNW,294,6.0,6.0,91,0.00,,,0.00,Wunderground v.1.15,2013-02-25 08:53:00,
2013-02-25 02:58:00,22.4,20.2,30.11,WNW,292,5.0,6.0,91,0.00,,,0.00,Wunderground v.1.15,2013-02-25 08:58:00,
2013-02-25 03:03:00,22.4,20.2,30.11,WNW,293,3.0,7.0,91,0.00,,,0.00,Wunderground v.1.15,2013-02-25 09:03:00,
2013-02-25 03:08:00,22.5,20.3,30.11,WNW,294,4.0,7.0,91,0.00,,,0.00,Wunderground v.1.15,2013-02-25 09:08:00,
2013-02-25 03:13:00,22.5,20.3,30.11,WNW,292,6.0,6.0,91,0.00,,,0.00,Wunderground v.1.15,2013-02-25 09:13:00,
2013-02-25 03:18:00,22.5,20.3,30.10,WNW,294,5.0,7.0,91,0.00,,,0.00,Wunderground v.1.15,2013-02-25 09:18:00,
2013-02-25 03:23:00,22.5,20.3,30.10,WNW,292,5.0,7.0,91,0.00,,,0.00,Wunderground v.1.15,2013-02-25 09:23:00,
2013-02-25 03:28:00,22.5,20.3,30.10,WNW,293,4.0,7.0,91,0.00,,,0.00,Wunderground v.1.15,2013-02-25 09:28:00,
2013-02-25 03:34:00,22.6,20.4,30.10,WNW,293,4.0,6.0,91,0.00,,,0.00,Wunderground v.1.15,2013-02-25 09:34:00,
2013-02-25 03:39:00,22.6,20.4,30.10,WNW,292,2.0,6.0,91,0.00,,,0.00,Wunderground v.1.15,2013-02-25 09:39:00,
2013-02-25 03:44:00,22.6,20.4,30.10,WNW,293,4.0,6.0,91,0.00,,,0.00,Wunderground v.1.15,2013-02-25 09:44:00,
2013-02-25 03:49:00,22.5,20.3,30.10,WNW,293,4.0,6.0,91,0.00,,,0.00,Wunderground v.1.15,2013-02-25 09:49:00,
2013-02-25 03:54:00,22.5,20.3,30.10,WNW,293,6.0,6.0,91,0.00,,,0.00,Wunderground v.1.15,2013-02-25 09:54:00,
2013-02-25 03:59:00,22.5,20.3,30.10,WNW,292,4.0,7.0,91,0.00,,,0.00,Wunderground v.1.15,2013-02-25 09:59:00,
2013-02-25 04:04:00,22.5,20.3,30.09,WNW,293,4.0,6.0,91,0.00,,,0.00,Wunderground v.1.15,2013-02-25 10:04:00,
2013-02-25 04:09:00,22.5,20.3,30.10,WNW,293,3.0,6.0,91,0.00,,,0.00,Wunderground v.1.15,2013-02-25 10:09:00,
2013-02-25 04:14:00,22.5,20.3,30.10,WNW,292,2.0,4.0,91,0.00,,,0.00,Wunderground v.1.15,2013-02-25 10:14:00,
2013-02-25 04:19:00,22.5,20.3,30.10,WNW,293,3.0,5.0,91,0.00,,,0.00,Wunderground v.1.15,2013-02-25 10:19:00,
2013-02-25 04:24:00,22.5,20.3,30.10,WNW,293,5.0,6.0,91,0.00,,,0.00,Wunderground v.1.15,2013-02-25 10:24:00,
2013-02-25 04:29:00,22.4,20.2,30.10,WNW,292,2.0,7.0,91,0.00,,,0.00,Wunderground v.1.15,2013-02-25 10:29:00,
2013-02-25 04:34:00,22.4,20.2,30.10,WNW,294,4.0,5.0,91,0.00,,,0.00,Wunderground v.1.15,2013-02-25 10:34:00,
2013-02-25 04:39:00,22.3,20.1,30.10,WNW,292,5.0,5.0,91,0.00,,,0.00,Wunderground v.1.15,2013-02-25 10:39:00,
2013-02-25 04:44:00,22.2,20.0,30.11,WNW,293,3.0,4.0,91,0.00,,,0.00,Wunderground v.1.15,2013-02-25 10:44:00,
2013-02-25 04:49:00,22.2,20.0,30.11,WNW,292,2.0,4.0,91,0.00,,,0.00,Wunderground v.1.15,2013-02-25 10:49:00,
2013-02-25 04:54:00,22.2,20.0,30.11,WNW,293,0.0,3.0,91,0.00,,,0.00,Wunderground v.1.15,2013-02-25 10:54:00,
2013-02-25 04:59:00,22.2,20.0,30.12,WNW,293,3.0,5.0,91,0.00,,,0.00,Wunderground v.1.15,2013-02-25 10:59:00,
2013-02-25 05:04:00,22.1,19.9,30.12,WNW,292,1.0,5.0,91,0.00,,,0.00,Wunderground v.1.15,2013-02-25 11:04:00,
2013-02-25 05:09:00,22.1,19.9,30.13,WNW,293,0.0,5.0,91,0.00,,,0.00,Wunderground v.1.15,2013-02-25 11:09:00,
2013-02-25 05:14:00,22.1,19.9,30.12,WNW,292,0.0,1.0,91,0.00,,,0.00,Wunderground v.1.15,2013-02-25 11:14:00,
2013-02-25 05:19:00,22.1,19.9,30.13,WNW,293,0.0,2.0,91,0.00,,,0.00,Wunderground v.1.15,2013-02-25 11:19:00,
2013-02-25 05:24:00,22.0,19.8,30.13,WNW,294,0.0,3.0,91,0.00,,,0.00,Wunderground v.1.15,2013-02-25 11:24:00,
2013-02-25 05:29:00,21.9,19.7,30.12,WNW,293,0.0,3.0,91,0.00,,,0.00,Wunderground v.1.15,2013-02-25 11:29:00,
2013-02-25 05:34:00,21.9,19.7,30.12,WNW,293,0.0,1.0,91,0.00,,,0.00,Wunderground v.1.15,2013-02-25 11:34:00,
2013-02-25 05:39:00,21.8,19.6,30.11,WNW,293,0.0,2.0,91,0.00,,,0.00,Wunderground v.1.15,2013-02-25 11:39:00,
2013-02-25 05:44:00,21.8,19.6,30.11,WNW,293,0.0,0.0,91,0.00,,,0.00,Wunderground v.1.15,2013-02-25 11:44:00,
2013-02-25 05:49:00,21.8,19.6,30.10,WNW,292,0.0,0.0,91,0.00,,,0.00,Wunderground v.1.15,2013-02-25 11:49:00,
2013-02-25 05:54:00,21.8,19.6,30.10,WNW,293,1.0,3.0,91,0.00,,,0.00,Wunderground v.1.15,2013-02-25 11:54:00,
2013-02-25 06:00:00,21.7,19.5,30.11,WNW,292,0.0,1.0,91,0.00,,,0.00,Wunderground v.1.15,2013-02-25 12:00:00,
2013-02-25 06:05:00,21.7,19.5,30.11,WNW,293,1.0,2.0,91,0.00,,,0.00,Wunderground v.1.15,2013-02-25 12:05:00,
2013-02-25 06:10:00,21.6,19.4,30.11,WNW,293,0.0,1.0,91,0.00,,,0.00,Wunderground v.1.15,2013-02-25 12:10:00,
2013-02-25 06:15:00,21.5,19.3,30.12,WNW,292,1.0,2.0,91,0.00,,,0.00,Wunderground v.1.15,2013-02-25 12:15:00,
2013-02-25 06:20:00,21.5,19.3,30.12,WNW,293,0.0,0.0,91,0.00,,,0.00,Wunderground v.1.15,2013-02-25 12:20:00,
2013-02-25 06:25:00,21.4,19.2,30.12,WNW,293,1.0,2.0,91,0.00,,,0.00,Wunderground v.1.15,2013-02-25 12:25:00,
2013-02-25 06:30:00,21.3,19.1,30.12,WNW,294,3.0,3.0,91,0.00,,,0.00,Wunderground v.1.15,2013-02-25 12:30:00,
2013-02-25 06:35:00,21.0,18.8,30.12,WNW,293,5.0,5.0,91,0.00,,,0.00,Wunderground v.1.15,2013-02-25 12:35:00,
2013-02-25 06:40:00,20.9,18.7,30.13,WNW,292,3.0,3.0,91,0.00,,,0.00,Wunderground v.1.15,2013-02-25 12:40:00,
2013-02-25 06:45:00,20.8,18.6,30.13,WNW,292,4.0,5.0,91,0.00,,,0.00,Wunderground v.1.15,2013-02-25 12:45:00,
2013-02-25 06:51:00,20.6,18.4,30.14,WNW,293,3.0,4.0,91,0.00,,,0.00,Wunderground v.1.15,2013-02-25 12:51:00,
2013-02-25 06:57:00,20.6,18.4,30.14,WNW,293,2.0,6.0,91,0.00,,,0.00,Wunderground v.1.15,2013-02-25 12:57:00,
2013-02-25 07:02:00,20.5,18.3,30.14,WNW,293,0.0,3.0,91,0.00,,,0.00,Wunderground v.1.15,2013-02-25 13:02:00,
2013-02-25 07:07:00,20.5,18.3,30.14,WNW,293,2.0,4.0,91,0.00,,,0.00,Wunderground v.1.15,2013-02-25 13:07:00,
2013-02-25 07:12:00,20.5,18.3,30.14,WNW,294,0.0,3.0,91,0.00,,,0.00,Wunderground v.1.15,2013-02-25 13:12:00,
2013-02-25 07:17:00,20.5,18.3,30.14,WNW,292,0.0,3.0,91,0.00,,,0.00,Wunderground v.1.15,2013-02-25 13:17:00,
2013-02-25 07:22:00,20.5,18.3,30.13,WNW,293,0.0,0.0,91,0.00,,,0.00,Wunderground v.1.15,2013-02-25 13:22:00,
2013-02-25 07:27:00,20.6,18.4,30.13,WNW,293,0.0,0.0,91,0.00,,,0.00,Wunderground v.1.15,2013-02-25 13:27:00,
2013-02-25 07:32:00,20.6,18.4,30.13,WNW,293,0.0,0.0,91,0.00,,,0.00,Wunderground v.1.15,2013-02-25 13:32:00,
2013-02-25 07:37:00,20.7,18.5,30.13,WNW,292,0.0,0.0,91,0.00,,,0.00,Wunderground v.1.15,2013-02-25 13:37:00,
2013-02-25 07:42:00,20.8,18.6,30.12,WNW,293,0.0,0.0,91,0.00,,,0.00,Wunderground v.1.15,2013-02-25 13:42:00,
2013-02-25 07:47:00,20.9,18.4,30.12,WNW,292,0.0,2.0,90,0.00,,,0.00,Wunderground v.1.15,2013-02-25 13:47:00,
2013-02-25 07:52:00,21.0,18.5,30.12,WNW,293,0.0,0.0,90,0.00,,,0.00,Wunderground v.1.15,2013-02-25 13:52:00,
2013-02-25 07:57:00,21.2,19.0,30.13,WNW,292,0.0,0.0,91,0.00,,,0.00,Wunderground v.1.15,2013-02-25 13:57:00,
2013-02-25 08:02:00,21.4,19.2,30.13,WNW,293,0.0,0.0,91,0.00,,,0.00,Wunderground v.1.15,2013-02-25 14:02:00,
2013-02-25 08:07:00,21.5,19.3,30.13,WNW,293,0.0,0.0,91,0.00,,,0.00,Wunderground v.1.15,2013-02-25 14:07:00,
2013-02-25 08:12:00,21.6,19.4,30.13,WNW,292,0.0,0.0,91,0.00,,,0.00,Wunderground v.1.15,2013-02-25 14:12:00,
2013-02-25 08:17:00,21.7,19.5,30.12,WNW,294,0.0,0.0,91,0.00,,,0.00,Wunderground v.1.15,2013-02-25 14:17:00,
2013-02-25 08:22:00,22.0,19.8,30.12,WNW,292,0.0,0.0,91,0.00,,,0.00,Wunderground v.1.15,2013-02-25 14:22:00,
2013-02-25 08:27:00,22.4,20.2,30.12,WNW,293,1.0,1.0,91,0.00,,,0.00,Wunderground v.1.15,2013-02-25 14:27:00,
2013-02-25 08:32:00,22.5,20.3,30.12,WNW,292,0.0,0.0,91,0.00,,,0.00,Wunderground v.1.15,2013-02-25 14:32:00,
2013-02-25 08:37:00,22.7,20.5,30.12,WNW,292,0.0,2.0,91,0.00,,,0.00,Wunderground v.1.15,2013-02-25 14:37:00,
2013-02-25 08:43:00,22.9,20.7,30.12,WNW,293,1.0,4.0,91,0.00,,,0.00,Wunderground v.1.15,2013-02-25 14:43:00,
2013-02-25 08:48:00,22.8,20.6,30.11,WNW,294,4.0,4.0,91,0.00,,,0.00,Wunderground v.1.15,2013-02-25 14:48:00,
2013-02-25 08:53:00,22.7,20.5,30.11,WNW,293,2.0,2.0,91,0.00,,,0.00,Wunderground v.1.15,2013-02-25 14:53:00,
2013-02-25 08:58:00,22.6,20.4,30.11,WNW,293,0.0,3.0,91,0.00,,,0.00,Wunderground v.1.15,2013-02-25 14:58:00,
2013-02-25 09:03:00,22.7,20.5,30.12,WNW,293,0.0,1.0,91,0.00,,,0.00,Wunderground v.1.15,2013-02-25 15:03:00,
2013-02-25 09:08:00,22.9,20.7,30.12,WNW,292,1.0,2.0,91,0.00,,,0.00,Wunderground v.1.15,2013-02-25 15:08:00,
2013-02-25 09:13:00,23.0,20.8,30.12,WNW,293,0.0,1.0,91,0.00,,,0.00,Wunderground v.1.15,2013-02-25 15:13:00,
2013-02-25 09:18:00,23.1,20.9,30.12,WNW,293,0.0,1.0,91,0.00,,,0.00,Wunderground v.1.15,2013-02-25 15:18:00,
2013-02-25 09:23:00,23.4,21.2,30.12,WNW,293,0.0,0.0,91,0.00,,,0.00,Wunderground v.1.15,2013-02-25 15:23:00,
2013-02-25 09:28:00,23.4,21.2,30.12,WNW,292,0.0,0.0,91,0.00,,,0.00,Wunderground v.1.15,2013-02-25 15:28:00,
2013-02-25 09:33:00,23.5,21.3,30.12,WNW,293,0.0,0.0,91,0.00,,,0.00,Wunderground v.1.15,2013-02-25 15:33:00,
2013-02-25 09:38:00,23.4,21.2,30.12,WNW,292,0.0,0.0,91,0.00,,,0.00,Wunderground v.1.15,2013-02-25 15:38:00,
2013-02-25 09:43:00,23.5,21.3,30.12,WNW,293,0.0,0.0,91,0.00,,,0.00,Wunderground v.1.15,2013-02-25 15:43:00,
2013-02-25 09:48:00,23.6,21.4,30.12,WNW,293,0.0,0.0,91,0.00,,,0.00,Wunderground v.1.15,2013-02-25 15:48:00,
2013-02-25 09:53:00,23.7,21.5,30.13,WNW,292,0.0,0.0,91,0.00,,,0.00,Wunderground v.1.15,2013-02-25 15:53:00,
2013-02-25 09:58:00,23.8,21.6,30.12,WNW,293,0.0,0.0,91,0.00,,,0.00,Wunderground v.1.15,2013-02-25 15:58:00,
2013-02-25 10:03:00,23.9,21.7,30.12,WNW,293,0.0,1.0,91,0.00,,,0.00,Wunderground v.1.15,2013-02-25 16:03:00,
2013-02-25 10:08:00,24.2,22.0,30.12,WNW,292,0.0,1.0,91,0.00,,,0.00,Wunderground v.1.15,2013-02-25 16:08:00,
2013-02-25 10:13:00,24.4,22.2,30.13,WNW,292,0.0,0.0,91,0.00,,,0.00,Wunderground v.1.15,2013-02-25 16:13:00,
2013-02-25 10:18:00,24.6,22.3,30.13,WNW,293,0.0,0.0,91,0.00,,,0.00,Wunderground v.1.15,2013-02-25 16:18:00,
2013-02-25 10:23:00,24.7,22.4,30.13,WNW,293,0.0,0.0,91,0.00,,,0.00,Wunderground v.1.15,2013-02-25 16:23:00,
2013-02-25 10:28:00,24.6,22.3,30.13,WNW,292,0.0,0.0,91,0.00,,,0.00,Wunderground v.1.15,2013-02-25 16:28:00,
2013-02-25 10:33:00,24.9,22.6,30.13,WNW,293,0.0,0.0,91,0.00,,,0.00,Wunderground v.1.15,2013-02-25 16:33:00,
2013-02-25 10:38:00,25.4,23.1,30.13,WNW,293,0.0,0.0,91,0.00,,,0.00,Wunderground v.1.15,2013-02-25 16:38:00,
2013-02-25 10:44:00,25.7,23.4,30.12,WNW,292,0.0,0.0,91,0.00,,,0.00,Wunderground v.1.15,2013-02-25 16:44:00,
2013-02-25 10:48:00,25.6,23.3,30.12,WNW,293,0.0,0.0,91,0.00,,,0.00,Wunderground v.1.15,2013-02-25 16:48:00,
2013-02-25 10:54:00,25.6,23.3,30.12,WNW,293,0.0,0.0,91,0.00,,,0.00,Wunderground v.1.15,2013-02-25 16:54:00,
2013-02-25 10:58:00,25.4,23.1,30.12,WNW,293,0.0,0.0,91,0.00,,,0.00,Wunderground v.1.15,2013-02-25 16:58:00,
2013-02-25 11:04:00,25.3,23.0,30.11,WNW,293,0.0,0.0,91,0.00,,,0.00,Wunderground v.1.15,2013-02-25 17:04:00,
2013-02-25 11:09:00,25.5,23.2,30.11,WNW,294,0.0,0.0,91,0.00,,,0.00,Wunderground v.1.15,2013-02-25 17:09:00,
2013-02-25 11:14:00,25.8,23.5,30.11,WNW,294,0.0,0.0,91,0.00,,,0.00,Wunderground v.1.15,2013-02-25 17:14:00,
2013-02-25 11:19:00,25.8,23.5,30.12,WNW,293,0.0,0.0,91,0.00,,,0.00,Wunderground v.1.15,2013-02-25 17:19:00,
2013-02-25 11:24:00,26.0,23.7,30.12,WNW,293,0.0,0.0,91,0.00,,,0.00,Wunderground v.1.15,2013-02-25 17:24:00,
2013-02-25 11:29:00,26.4,24.1,30.12,WNW,294,0.0,0.0,91,0.00,,,0.00,Wunderground v.1.15,2013-02-25 17:29:00,
2013-02-25 11:34:00,27.0,24.7,30.12,WNW,292,0.0,0.0,91,0.00,,,0.00,Wunderground v.1.15,2013-02-25 17:34:00,
2013-02-25 11:39:00,26.3,24.3,30.12,WNW,294,2.0,3.0,92,0.00,,,0.00,Wunderground v.1.15,2013-02-25 17:39:00,
2013-02-25 11:44:00,25.9,23.6,30.12,WNW,294,1.0,2.0,91,0.00,,,0.00,Wunderground v.1.15,2013-02-25 17:44:00,
2013-02-25 11:49:00,25.8,23.5,30.11,WNW,293,0.0,2.0,91,0.00,,,0.00,Wunderground v.1.15,2013-02-25 17:49:00,
2013-02-25 11:54:00,26.3,24.0,30.11,WNW,293,0.0,1.0,91,0.00,,,0.00,Wunderground v.1.15,2013-02-25 17:54:00,
2013-02-25 11:59:00,26.6,24.3,30.11,WNW,294,0.0,1.0,91,0.00,,,0.00,Wunderground v.1.15,2013-02-25 17:59:00,
2013-02-25 12:04:00,27.2,24.9,30.11,WNW,293,1.0,1.0,91,0.00,,,0.00,Wunderground v.1.15,2013-02-25 18:04:00,
2013-02-25 12:09:00,26.9,24.6,30.11,WNW,294,1.0,5.0,91,0.00,,,0.00,Wunderground v.1.15,2013-02-25 18:09:00,
2013-02-25 12:14:00,26.8,24.5,30.10,WNW,294,0.0,5.0,91,0.00,,,0.00,Wunderground v.1.15,2013-02-25 18:14:00,
2013-02-25 12:19:00,26.9,24.6,30.11,WNW,293,0.0,5.0,91,0.00,,,0.00,Wunderground v.1.15,2013-02-25 18:19:00,
2013-02-25 12:24:00,26.8,24.5,30.10,WNW,293,3.0,5.0,91,0.00,,,0.00,Wunderground v.1.15,2013-02-25 18:24:00,
2013-02-25 12:29:00,26.4,24.1,30.11,WNW,294,2.0,5.0,91,0.00,,,0.00,Wunderground v.1.15,2013-02-25 18:29:00,
2013-02-25 12:34:00,26.2,23.9,30.10,WNW,292,0.0,5.0,91,0.00,,,0.00,Wunderground v.1.15,2013-02-25 18:34:00,
2013-02-25 12:39:00,26.3,24.0,30.10,WNW,292,1.0,5.0,91,0.00,,,0.00,Wunderground v.1.15,2013-02-25 18:39:00,
2013-02-25 12:44:00,26.5,24.2,30.10,WNW,293,1.0,3.0,91,0.00,,,0.00,Wunderground v.1.15,2013-02-25 18:44:00,
2013-02-25 12:49:00,26.7,24.4,30.09,WNW,294,0.0,3.0,91,0.00,,,0.00,Wunderground v.1.15,2013-02-25 18:49:00,
2013-02-25 12:54:00,26.8,24.3,30.09,WNW,293,2.0,3.0,90,0.00,,,0.00,Wunderground v.1.15,2013-02-25 18:54:00,
2013-02-25 12:59:00,26.8,24.3,30.08,WNW,294,2.0,5.0,90,0.00,,,0.00,Wunderground v.1.15,2013-02-25 18:59:00,
2013-02-25 13:04:00,26.8,24.3,30.08,WNW,294,2.0,4.0,90,0.00,,,0.00,Wunderground v.1.15,2013-02-25 19:04:00,
2013-02-25 13:09:00,26.9,24.4,30.07,WNW,294,1.0,6.0,90,0.00,,,0.00,Wunderground v.1.15,2013-02-25 19:09:00,
2013-02-25 13:14:00,27.0,24.5,30.07,WNW,293,3.0,6.0,90,0.00,,,0.00,Wunderground v.1.15,2013-02-25 19:14:00,
2013-02-25 13:19:00,26.8,24.3,30.07,WNW,294,1.0,6.0,90,0.00,,,0.00,Wunderground v.1.15,2013-02-25 19:19:00,
2013-02-25 13:24:00,26.8,24.3,30.07,WNW,293,3.0,7.0,90,0.00,,,0.00,Wunderground v.1.15,2013-02-25 19:24:00,
2013-02-25 13:29:00,26.8,24.3,30.07,WNW,293,4.0,7.0,90,0.00,,,0.00,Wunderground v.1.15,2013-02-25 19:29:00,
2013-02-25 13:34:00,26.8,24.3,30.06,WNW,294,4.0,6.0,90,0.00,,,0.00,Wunderground v.1.15,2013-02-25 19:34:00,
2013-02-25 13:39:00,26.9,24.4,30.07,WNW,293,0.0,7.0,90,0.00,,,0.00,Wunderground v.1.15,2013-02-25 19:39:00,
2013-02-25 13:44:00,27.1,24.6,30.07,WNW,294,2.0,5.0,90,0.00,,,0.00,Wunderground v.1.15,2013-02-25 19:44:00,
2013-02-25 13:49:00,27.2,24.4,30.06,WNW,294,2.0,6.0,89,0.00,,,0.00,Wunderground v.1.15,2013-02-25 19:49:00,
2013-02-25 13:54:00,27.0,24.2,30.06,WNW,294,2.0,5.0,89,0.00,,,0.00,Wunderground v.1.15,2013-02-25 19:54:00,
2013-02-25 14:00:00,27.1,24.3,30.06,WNW,294,3.0,3.0,89,0.00,,,0.00,Wunderground v.1.15,2013-02-25 20:00:00,
2013-02-25 14:07:00,27.1,24.3,30.07,WNW,294,5.0,5.0,89,0.00,,,0.00,Wunderground v.1.15,2013-02-25 20:07:00,
2013-02-25 14:12:00,26.9,24.1,30.07,WNW,294,5.0,6.0,89,0.00,,,0.00,Wunderground v.1.15,2013-02-25 20:12:00,
2013-02-25 14:17:00,26.7,23.9,30.06,WNW,292,0.0,6.0,89,0.00,,,0.00,Wunderground v.1.15,2013-02-25 20:17:00,
2013-02-25 14:22:00,26.5,23.7,30.06,WNW,293,0.0,5.0,89,0.00,,,0.00,Wunderground v.1.15,2013-02-25 20:22:00,
2013-02-25 14:27:00,26.6,23.8,30.06,WNW,293,5.0,6.0,89,0.00,,,0.00,Wunderground v.1.15,2013-02-25 20:27:00,
2013-02-25 14:32:00,26.7,23.9,30.06,WNW,294,4.0,4.0,89,0.00,,,0.00,Wunderground v.1.15,2013-02-25 20:32:00,
2013-02-25 14:37:00,26.5,23.7,30.06,WNW,294,6.0,7.0,89,0.00,,,0.00,Wunderground v.1.15,2013-02-25 20:37:00,
2013-02-25 14:42:00,26.5,23.7,30.06,WNW,294,3.0,4.0,89,0.00,,,0.00,Wunderground v.1.15,2013-02-25 20:42:00,
2013-02-25 14:47:00,26.5,23.7,30.06,WNW,294,4.0,6.0,89,0.00,,,0.00,Wunderground v.1.15,2013-02-25 20:47:00,
2013-02-25 14:52:00,26.6,23.8,30.06,WNW,294,1.0,4.0,89,0.00,,,0.00,Wunderground v.1.15,2013-02-25 20:52:00,
2013-02-25 14:57:00,26.8,23.7,30.06,WNW,294,0.0,5.0,88,0.00,,,0.00,Wunderground v.1.15,2013-02-25 20:57:00,
2013-02-25 15:02:00,26.7,23.6,30.06,WNW,293,2.0,4.0,88,0.00,,,0.00,Wunderground v.1.15,2013-02-25 21:02:00,
2013-02-25 15:07:00,26.6,23.5,30.07,WNW,294,3.0,6.0,88,0.00,,,0.00,Wunderground v.1.15,2013-02-25 21:07:00,
2013-02-25 15:12:00,26.3,23.2,30.07,WNW,294,3.0,5.0,88,0.00,,,0.00,Wunderground v.1.15,2013-02-25 21:12:00,
2013-02-25 15:17:00,26.3,23.2,30.07,WNW,294,5.0,5.0,88,0.00,,,0.00,Wunderground v.1.15,2013-02-25 21:17:00,
2013-02-25 15:22:00,26.3,23.2,30.07,WNW,294,3.0,5.0,88,0.00,,,0.00,Wunderground v.1.15,2013-02-25 21:22:00,
2013-02-25 15:27:00,26.4,23.3,30.07,WNW,294,0.0,5.0,88,0.00,,,0.00,Wunderground v.1.15,2013-02-25 21:27:00,
2013-02-25 15:32:00,26.4,23.3,30.07,WNW,294,4.0,5.0,88,0.00,,,0.00,Wunderground v.1.15,2013-02-25 21:32:00,
2013-02-25 15:37:00,26.2,22.9,30.07,WNW,294,6.0,7.0,87,0.00,,,0.00,Wunderground v.1.15,2013-02-25 21:37:00,
2013-02-25 15:42:00,26.2,22.9,30.07,WNW,294,1.0,5.0,87,0.00,,,0.00,Wunderground v.1.15,2013-02-25 21:42:00,
2013-02-25 15:47:00,26.2,22.9,30.07,WNW,294,1.0,5.0,87,0.00,,,0.00,Wunderground v.1.15,2013-02-25 21:47:00,
2013-02-25 15:52:00,26.5,23.2,30.08,WNW,293,0.0,1.0,87,0.00,,,0.00,Wunderground v.1.15,2013-02-25 21:52:00,
2013-02-25 15:57:00,26.7,23.4,30.08,WNW,292,2.0,3.0,87,0.00,,,0.00,Wunderground v.1.15,2013-02-25 21:57:00,
2013-02-25 16:03:00,26.6,23.3,30.07,WNW,294,1.0,2.0,87,0.00,,,0.00,Wunderground v.1.15,2013-02-25 22:03:00,
2013-02-25 16:08:00,26.6,23.0,30.07,WNW,294,1.0,4.0,86,0.00,,,0.00,Wunderground v.1.15,2013-02-25 22:08:00,
2013-02-25 16:13:00,26.5,22.9,30.07,WNW,294,3.0,5.0,86,0.00,,,0.00,Wunderground v.1.15,2013-02-25 22:13:00,
2013-02-25 16:18:00,26.6,23.0,30.07,WNW,294,2.0,6.0,86,0.00,,,0.00,Wunderground v.1.15,2013-02-25 22:18:00,
2013-02-25 16:23:00,26.5,22.9,30.07,WNW,294,3.0,3.0,86,0.00,,,0.00,Wunderground v.1.15,2013-02-25 22:23:00,
2013-02-25 16:28:00,26.5,22.9,30.07,WNW,294,5.0,6.0,86,0.00,,,0.00,Wunderground v.1.15,2013-02-25 22:28:00,
2013-02-25 16:33:00,26.3,22.7,30.06,WNW,294,6.0,7.0,86,0.00,,,0.00,Wunderground v.1.15,2013-02-25 22:33:00,
2013-02-25 16:38:00,26.2,22.6,30.07,WNW,293,4.0,7.0,86,0.00,,,0.00,Wunderground v.1.15,2013-02-25 22:38:00,
2013-02-25 16:43:00,26.0,22.1,30.06,WNW,293,6.0,7.0,85,0.00,,,0.00,Wunderground v.1.15,2013-02-25 22:43:00,
2013-02-25 16:48:00,25.8,21.9,30.06,North,355,6.0,9.0,85,0.00,,,0.00,Wunderground v.1.15,2013-02-25 22:48:00,
2013-02-25 16:53:00,25.6,22.0,30.06,North,355,3.0,7.0,86,0.00,,,0.00,Wunderground v.1.15,2013-02-25 22:53:00,
2013-02-25 16:59:00,25.5,21.6,30.06,North,355,4.0,7.0,85,0.00,,,0.00,Wunderground v.1.15,2013-02-25 22:59:00,
2013-02-25 17:04:00,25.3,21.4,30.05,North,355,4.0,7.0,85,0.00,,,0.00,Wunderground v.1.15,2013-02-25 23:04:00,
2013-02-25 17:09:00,25.1,21.2,30.05,North,360,3.0,7.0,85,0.00,,,0.00,Wunderground v.1.15,2013-02-25 23:09:00,
2013-02-25 17:14:00,24.9,21.0,30.05,North,360,2.0,5.0,85,0.00,,,0.00,Wunderground v.1.15,2013-02-25 23:14:00,
2013-02-25 17:19:00,24.9,21.0,30.05,North,360,2.0,5.0,85,0.00,,,0.00,Wunderground v.1.15,2013-02-25 23:19:00,
2013-02-25 17:24:00,24.8,20.9,30.05,North,360,3.0,5.0,85,0.00,,,0.00,Wunderground v.1.15,2013-02-25 23:24:00,
2013-02-25 17:29:00,24.7,20.8,30.05,North,360,2.0,6.0,85,0.00,,,0.00,Wunderground v.1.15,2013-02-25 23:29:00,
2013-02-25 17:34:00,24.6,20.7,30.05,North,360,1.0,3.0,85,0.00,,,0.00,Wunderground v.1.15,2013-02-25 23:34:00,
2013-02-25 17:39:00,24.5,20.6,30.05,North,360,2.0,4.0,85,0.00,,,0.00,Wunderground v.1.15,2013-02-25 23:39:00,
2013-02-25 17:44:00,24.5,20.9,30.06,North,360,0.0,2.0,86,0.00,,,0.00,Wunderground v.1.15,2013-02-25 23:44:00,
2013-02-25 17:49:00,24.5,20.9,30.06,North,360,4.0,4.0,86,0.00,,,0.00,Wunderground v.1.15,2013-02-25 23:49:00,
2013-02-25 17:54:00,24.4,20.8,30.06,North,360,3.0,6.0,86,0.00,,,0.00,Wunderground v.1.15,2013-02-25 23:54:00,
2013-02-25 17:59:00,24.3,21.0,30.06,North,360,4.0,6.0,87,0.00,,,0.00,Wunderground v.1.15,2013-02-25 23:59:00,
2013-02-25 18:04:00,24.1,20.8,30.06,North,360,4.0,6.0,87,0.00,,,0.00,Wunderground v.1.15,2013-02-26 00:04:00,
2013-02-25 18:09:00,23.9,20.6,30.06,North,360,3.0,6.0,87,0.00,,,0.00,Wunderground v.1.15,2013-02-26 00:09:00,
2013-02-25 18:14:00,23.7,20.4,30.06,North,360,2.0,4.0,87,0.00,,,0.00,Wunderground v.1.15,2013-02-26 00:14:00,
2013-02-25 18:19:00,23.6,20.3,30.06,North,360,4.0,6.0,87,0.00,,,0.00,Wunderground v.1.15,2013-02-26 00:19:00,
2013-02-25 18:24:00,23.5,20.2,30.07,North,360,5.0,5.0,87,0.00,,,0.00,Wunderground v.1.15,2013-02-26 00:24:00,
2013-02-25 18:29:00,23.4,20.1,30.06,North,360,4.0,5.0,87,0.00,,,0.00,Wunderground v.1.15,2013-02-26 00:29:00,
2013-02-25 18:34:00,23.2,19.9,30.06,North,360,3.0,7.0,87,0.00,,,0.00,Wunderground v.1.15,2013-02-26 00:34:00,
2013-02-25 18:39:00,23.1,20.1,30.06,North,360,4.0,7.0,88,0.00,,,0.00,Wunderground v.1.15,2013-02-26 00:39:00,
2013-02-25 18:44:00,23.1,20.1,30.07,North,360,5.0,6.0,88,0.00,,,0.00,Wunderground v.1.15,2013-02-26 00:44:00,
2013-02-25 18:49:00,23.0,20.0,30.07,North,360,8.0,8.0,88,0.00,,,0.00,Wunderground v.1.15,2013-02-26 00:49:00,
2013-02-25 18:54:00,22.8,19.8,30.07,North,360,3.0,6.0,88,0.00,,,0.00,Wunderground v.1.15,2013-02-26 00:54:00,
2013-02-25 18:59:00,22.8,19.8,30.07,North,360,6.0,6.0,88,0.00,,,0.00,Wunderground v.1.15,2013-02-26 00:59:00,
2013-02-25 19:04:00,22.6,19.6,30.07,North,360,2.0,8.0,88,0.00,,,0.00,Wunderground v.1.15,2013-02-26 01:04:00,
2013-02-25 19:09:00,22.4,19.4,30.07,North,360,5.0,8.0,88,0.00,,,0.00,Wunderground v.1.15,2013-02-26 01:09:00,
2013-02-25 19:14:00,22.4,19.4,30.07,North,360,3.0,5.0,88,0.00,,,0.00,Wunderground v.1.15,2013-02-26 01:14:00,
2013-02-25 19:19:00,22.3,19.6,30.06,North,360,4.0,6.0,89,0.00,,,0.00,Wunderground v.1.15,2013-02-26 01:19:00,
2013-02-25 19:24:00,22.2,19.5,30.06,North,360,6.0,9.0,89,0.00,,,0.00,Wunderground v.1.15,2013-02-26 01:24:00,
2013-02-25 19:29:00,22.0,19.3,30.06,North,360,6.0,9.0,89,0.00,,,0.00,Wunderground v.1.15,2013-02-26 01:29:00,
2013-02-25 19:34:00,21.8,19.1,30.06,North,360,4.0,7.0,89,0.00,,,0.00,Wunderground v.1.15,2013-02-26 01:34:00,
2013-02-25 19:39:00,21.8,19.1,30.06,North,9,5.0,9.0,89,0.00,,,0.00,Wunderground v.1.15,2013-02-26 01:39:00,
2013-02-25 19:44:00,21.7,19.0,30.06,North,9,4.0,5.0,89,0.00,,,0.00,Wunderground v.1.15,2013-02-26 01:44:00,
2013-02-25 19:49:00,21.6,18.9,30.06,North,9,4.0,6.0,89,0.00,,,0.00,Wunderground v.1.15,2013-02-26 01:49:00,
2013-02-25 19:54:00,21.6,19.1,30.06,North,9,2.0,5.0,90,0.00,,,0.00,Wunderground v.1.15,2013-02-26 01:54:00,
2013-02-25 19:59:00,21.5,19.0,30.06,North,10,5.0,8.0,90,0.00,,,0.00,Wunderground v.1.15,2013-02-26 01:59:00,
2013-02-25 20:04:00,21.3,18.8,30.06,North,11,6.0,7.0,90,0.00,,,0.00,Wunderground v.1.15,2013-02-26 02:04:00,
2013-02-25 20:09:00,21.1,18.6,30.06,North,11,4.0,7.0,90,0.00,,,0.00,Wunderground v.1.15,2013-02-26 02:09:00,
2013-02-25 20:14:00,21.0,18.5,30.06,North,11,4.0,8.0,90,0.00,,,0.00,Wunderground v.1.15,2013-02-26 02:14:00,
2013-02-25 20:19:00,20.8,18.3,30.06,North,11,3.0,8.0,90,0.00,,,0.00,Wunderground v.1.15,2013-02-26 02:19:00,
2013-02-25 20:25:00,20.7,18.2,30.06,North,11,5.0,7.0,90,0.00,,,0.00,Wunderground v.1.15,2013-02-26 02:25:00,
2013-02-25 20:30:00,20.6,18.1,30.05,North,11,4.0,5.0,90,0.00,,,0.00,Wunderground v.1.15,2013-02-26 02:30:00,
2013-02-25 20:35:00,20.3,17.8,30.05,North,11,4.0,6.0,90,0.00,,,0.00,Wunderground v.1.15,2013-02-26 02:35:00,
2013-02-25 20:40:00,20.2,17.7,30.04,North,11,6.0,6.0,90,0.00,,,0.00,Wunderground v.1.15,2013-02-26 02:40:00,
2013-02-25 20:45:00,20.0,17.5,30.04,NNE,17,7.0,8.0,90,0.00,,,0.00,Wunderground v.1.15,2013-02-26 02:45:00,
2013-02-25 20:50:00,19.7,17.2,30.03,NNE,17,5.0,6.0,90,0.00,,,0.00,Wunderground v.1.15,2013-02-26 02:50:00,
2013-02-25 20:55:00,19.7,17.2,30.03,NNE,17,5.0,7.0,90,0.00,,,0.00,Wunderground v.1.15,2013-02-26 02:55:00,
2013-02-25 21:00:00,19.7,17.2,30.03,NNE,17,5.0,5.0,90,0.00,,,0.00,Wunderground v.1.15,2013-02-26 03:00:00,
2013-02-25 21:05:00,19.7,17.2,30.03,NNE,29,6.0,9.0,90,0.00,,,0.00,Wunderground v.1.15,2013-02-26 03:05:00,
2013-02-25 21:10:00,19.5,17.0,30.03,NNE,30,8.0,8.0,90,0.00,,,0.00,Wunderground v.1.15,2013-02-26 03:10:00,
2013-02-25 21:15:00,19.5,17.0,30.03,NNE,31,3.0,8.0,90,0.00,,,0.00,Wunderground v.1.15,2013-02-26 03:15:00,
2013-02-25 21:20:00,19.4,16.9,30.03,NE,34,4.0,6.0,90,0.00,,,0.00,Wunderground v.1.15,2013-02-26 03:20:00,
2013-02-25 21:25:00,19.4,16.9,30.03,NE,34,4.0,7.0,90,0.00,,,0.00,Wunderground v.1.15,2013-02-26 03:25:00,
2013-02-25 21:31:00,19.4,16.9,30.03,NE,34,6.0,6.0,90,0.00,,,0.00,Wunderground v.1.15,2013-02-26 03:31:00,
2013-02-25 21:36:00,19.3,16.8,30.03,NE,34,5.0,7.0,90,0.00,,,0.00,Wunderground v.1.15,2013-02-26 03:36:00,
2013-02-25 21:41:00,19.3,16.8,30.03,NNE,33,7.0,7.0,90,0.00,,,0.00,Wunderground v.1.15,2013-02-26 03:41:00,
2013-02-25 21:46:00,19.0,16.6,30.02,NE,34,4.0,8.0,90,0.00,,,0.00,Wunderground v.1.15,2013-02-26 03:46:00,
2013-02-25 21:52:00,18.9,16.5,30.02,NE,34,4.0,7.0,90,0.00,,,0.00,Wunderground v.1.15,2013-02-26 03:52:00,
2013-02-25 21:57:00,18.8,16.4,30.02,NE,36,6.0,9.0,90,0.00,,,0.00,Wunderground v.1.15,2013-02-26 03:57:00,
2013-02-25 22:02:00,18.6,16.2,30.02,NE,36,5.0,7.0,90,0.00,,,0.00,Wunderground v.1.15,2013-02-26 04:02:00,
2013-02-25 22:07:00,18.5,16.1,30.02,NE,36,6.0,8.0,90,0.00,,,0.00,Wunderground v.1.15,2013-02-26 04:07:00,
2013-02-25 22:12:00,18.6,16.2,30.02,NE,36,6.0,7.0,90,0.00,,,0.00,Wunderground v.1.15,2013-02-26 04:12:00,
2013-02-25 22:17:00,18.7,16.3,30.02,NE,36,5.0,8.0,90,0.00,,,0.00,Wunderground v.1.15,2013-02-26 04:17:00,
2013-02-25 22:22:00,18.7,16.3,30.02,NE,36,9.0,9.0,90,0.00,,,0.00,Wunderground v.1.15,2013-02-26 04:22:00,
2013-02-25 22:27:00,18.5,16.1,30.02,NE,36,7.0,9.0,90,0.00,,,0.00,Wunderground v.1.15,2013-02-26 04:27:00,
2013-02-25 22:32:00,18.5,16.1,30.02,NE,36,6.0,7.0,90,0.00,,,0.00,Wunderground v.1.15,2013-02-26 04:32:00,
2013-02-25 22:37:00,18.5,16.1,30.02,NE,36,7.0,8.0,90,0.00,,,0.00,Wunderground v.1.15,2013-02-26 04:37:00,
2013-02-25 22:42:00,18.6,16.2,30.01,NE,36,7.0,7.0,90,0.00,,,0.00,Wunderground v.1.15,2013-02-26 04:42:00,
2013-02-25 22:47:00,18.6,16.2,30.02,NE,36,8.0,9.0,90,0.00,,,0.00,Wunderground v.1.15,2013-02-26 04:47:00,
2013-02-25 22:52:00,18.4,16.0,30.02,NE,36,3.0,6.0,90,0.00,,,0.00,Wunderground v.1.15,2013-02-26 04:52:00,
2013-02-25 22:57:00,18.2,15.8,30.02,NE,36,2.0,6.0,90,0.00,,,0.00,Wunderground v.1.15,2013-02-26 04:57:00,
2013-02-25 23:00:00,18.1,15.7,30.02,NE,36,4.0,4.0,90,0.00,,,0.00,Wunderground v.1.15,2013-02-26 05:00:00,
2013-02-25 23:07:00,18.1,15.7,30.02,NE,36,5.0,7.0,90,0.00,,,0.00,Wunderground v.1.15,2013-02-26 05:07:00,
2013-02-25 23:12:00,18.2,15.8,30.02,NE,36,2.0,5.0,90,0.00,,,0.00,Wunderground v.1.15,2013-02-26 05:12:00,
2013-02-25 23:17:00,18.2,15.8,30.03,NE,36,2.0,5.0,90,0.00,,,0.00,Wunderground v.1.15,2013-02-26 05:17:00,
2013-02-25 23:22:00,18.4,16.0,30.03,NE,36,1.0,4.0,90,0.00,,,0.00,Wunderground v.1.15,2013-02-26 05:22:00,
2013-02-25 23:27:00,18.4,16.0,30.03,NE,36,4.0,4.0,90,0.00,,,0.00,Wunderground v.1.15,2013-02-26 05:27:00,
2013-02-25 23:32:00,18.6,16.2,30.04,NE,36,1.0,4.0,90,0.00,,,0.00,Wunderground v.1.15,2013-02-26 05:32:00,
2013-02-25 23:37:00,18.8,16.4,30.03,NE,36,1.0,4.0,90,0.00,,,0.00,Wunderground v.1.15,2013-02-26 05:37:00,
2013-02-25 23:42:00,19.0,16.6,30.03,NE,36,3.0,3.0,90,0.00,,,0.00,Wunderground v.1.15,2013-02-26 05:42:00,
2013-02-25 23:47:00,19.3,16.8,30.03,NE,36,1.0,5.0,90,0.00,,,0.00,Wunderground v.1.15,2013-02-26 05:47:00,
2013-02-25 23:52:00,19.6,17.1,30.03,NE,36,5.0,6.0,90,0.00,,,0.00,Wunderground v.1.15,2013-02-26 05:52:00,
2013-02-25 23:57:00,19.7,17.2,30.03,NE,36,3.0,7.0,90,0.00,,,0.00,Wunderground v.1.15,2013-02-26 05:57:00,